Year,Month,Day,Hour,Minute,Value (Times are PST for windspeed in km/hr)
2011,03,03,00,00,10.00
2011,03,03,00,01,15.70
2011,03,03,00,02,13.90
2011,03,03,00,03,11.50
2011,03,03,00,04,11.30
2011,03,03,00,05,5.90
2011,03,03,00,06,7.00
2011,03,03,00,07,9.40
2011,03,03,00,08,10.60
2011,03,03,00,09,12.20
2011,03,03,00,10,15.60
2011,03,03,00,11,13.40
2011,03,03,00,12,9.90
2011,03,03,00,13,9.30
2011,03,03,00,14,16.70
2011,03,03,00,15,14.60
2011,03,03,00,16,10.80
2011,03,03,00,17,13.20
2011,03,03,00,18,9.60
2011,03,03,00,19,13.00
2011,03,03,00,20,12.00
2011,03,03,00,21,7.10
2011,03,03,00,22,11.40
2011,03,03,00,23,14.20
2011,03,03,00,24,12.70
2011,03,03,00,25,10.30
2011,03,03,00,26,10.60
2011,03,03,00,27,10.80
2011,03,03,00,28,9.00
2011,03,03,00,29,8.20
2011,03,03,00,30,9.70
2011,03,03,00,31,15.90
2011,03,03,00,32,12.20
2011,03,03,00,33,11.70
2011,03,03,00,34,11.90
2011,03,03,00,35,9.80
2011,03,03,00,36,11.70
2011,03,03,00,37,13.10
2011,03,03,00,38,14.80
2011,03,03,00,39,10.60
2011,03,03,00,40,7.80
2011,03,03,00,41,5.90
2011,03,03,00,42,9.70
2011,03,03,00,43,12.40
2011,03,03,00,44,11.80
2011,03,03,00,45,8.70
2011,03,03,00,46,9.20
2011,03,03,00,47,10.20
2011,03,03,00,48,13.70
2011,03,03,00,49,14.80
2011,03,03,00,50,7.10
2011,03,03,00,51,5.80
2011,03,03,00,52,9.10
2011,03,03,00,53,8.30
2011,03,03,00,54,13.80
2011,03,03,00,55,11.80
2011,03,03,00,56,13.00
2011,03,03,00,57,15.50
2011,03,03,00,58,8.60
2011,03,03,00,59,8.10
2011,03,03,01,00,6.00
2011,03,03,01,01,9.50
2011,03,03,01,02,9.90
2011,03,03,01,03,13.10
2011,03,03,01,04,10.10
2011,03,03,01,05,9.10
2011,03,03,01,06,7.70
2011,03,03,01,07,7.20
2011,03,03,01,08,6.90
2011,03,03,01,09,11.50
2011,03,03,01,10,8.50
2011,03,03,01,11,8.30
2011,03,03,01,12,8.90
2011,03,03,01,13,9.70
2011,03,03,01,14,9.20
2011,03,03,01,15,10.90
2011,03,03,01,16,7.70
2011,03,03,01,17,14.60
2011,03,03,01,18,11.40
2011,03,03,01,19,12.30
2011,03,03,01,20,11.70
2011,03,03,01,21,10.00
2011,03,03,01,22,15.00
2011,03,03,01,23,10.50
2011,03,03,01,24,11.70
2011,03,03,01,25,9.50
2011,03,03,01,26,9.00
2011,03,03,01,27,8.60
2011,03,03,01,28,9.00
2011,03,03,01,29,13.00
2011,03,03,01,30,13.90
2011,03,03,01,31,12.60
2011,03,03,01,32,9.00
2011,03,03,01,33,10.70
2011,03,03,01,34,14.00
2011,03,03,01,35,10.30
2011,03,03,01,36,8.40
2011,03,03,01,37,8.10
2011,03,03,01,38,7.30
2011,03,03,01,39,13.50
2011,03,03,01,40,15.00
2011,03,03,01,41,19.20
2011,03,03,01,42,8.60
2011,03,03,01,43,12.70
2011,03,03,01,44,11.80
2011,03,03,01,45,13.00
2011,03,03,01,46,13.80
2011,03,03,01,47,9.70
2011,03,03,01,48,10.00
2011,03,03,01,49,7.30
2011,03,03,01,50,12.30
2011,03,03,01,51,11.70
2011,03,03,01,52,9.60
2011,03,03,01,53,10.90
2011,03,03,01,54,13.40
2011,03,03,01,55,12.00
2011,03,03,01,56,6.90
2011,03,03,01,57,8.00
2011,03,03,01,58,9.50
2011,03,03,01,59,10.90
2011,03,03,02,00,11.20
2011,03,03,02,01,8.50
2011,03,03,02,02,12.50
2011,03,03,02,03,10.40
2011,03,03,02,04,9.90
2011,03,03,02,05,6.00
2011,03,03,02,06,11.30
2011,03,03,02,07,13.60
2011,03,03,02,08,10.40
2011,03,03,02,09,8.40
2011,03,03,02,10,11.00
2011,03,03,02,11,8.60
2011,03,03,02,12,7.80
2011,03,03,02,13,9.90
2011,03,03,02,14,8.70
2011,03,03,02,15,11.90
2011,03,03,02,16,13.80
2011,03,03,02,17,12.30
2011,03,03,02,18,11.70
2011,03,03,02,19,12.00
2011,03,03,02,20,10.60
2011,03,03,02,21,10.70
2011,03,03,02,22,8.30
2011,03,03,02,23,9.40
2011,03,03,02,24,8.30
2011,03,03,02,25,7.90
2011,03,03,02,26,11.70
2011,03,03,02,27,10.40
2011,03,03,02,28,9.20
2011,03,03,02,29,9.10
2011,03,03,02,30,12.20
2011,03,03,02,31,9.70
2011,03,03,02,32,9.10
2011,03,03,02,33,6.70
2011,03,03,02,34,7.40
2011,03,03,02,35,8.30
2011,03,03,02,36,4.90
2011,03,03,02,37,6.00
2011,03,03,02,38,7.00
2011,03,03,02,39,8.50
2011,03,03,02,40,10.10
2011,03,03,02,41,9.40
2011,03,03,02,42,6.50
2011,03,03,02,43,5.30
2011,03,03,02,44,4.60
2011,03,03,02,45,4.60
2011,03,03,02,46,2.40
2011,03,03,02,47,2.70
2011,03,03,02,48,4.20
2011,03,03,02,49,3.60
2011,03,03,02,50,3.10
2011,03,03,02,51,3.10
2011,03,03,02,52,4.60
2011,03,03,02,53,5.90
2011,03,03,02,54,5.10
2011,03,03,02,55,3.90
2011,03,03,02,56,3.30
2011,03,03,02,57,3.70
2011,03,03,02,58,3.70
2011,03,03,02,59,4.30
2011,03,03,03,00,5.80
2011,03,03,03,01,4.30
2011,03,03,03,02,4.30
2011,03,03,03,03,5.50
2011,03,03,03,04,6.50
2011,03,03,03,05,6.30
2011,03,03,03,06,6.00
2011,03,03,03,07,5.00
2011,03,03,03,08,5.00
2011,03,03,03,09,5.10
2011,03,03,03,10,5.60
2011,03,03,03,11,3.90
2011,03,03,03,12,5.20
2011,03,03,03,13,4.50
2011,03,03,03,14,5.00
2011,03,03,03,15,6.10
2011,03,03,03,16,5.60
2011,03,03,03,17,5.10
2011,03,03,03,18,5.40
2011,03,03,03,19,4.70
2011,03,03,03,20,4.30
2011,03,03,03,21,5.50
2011,03,03,03,22,5.70
2011,03,03,03,23,6.60
2011,03,03,03,24,7.50
2011,03,03,03,25,8.10
2011,03,03,03,26,6.20
2011,03,03,03,27,5.60
2011,03,03,03,28,4.50
2011,03,03,03,29,5.20
2011,03,03,03,30,7.30
2011,03,03,03,31,5.60
2011,03,03,03,32,6.20
2011,03,03,03,33,5.70
2011,03,03,03,34,6.00
2011,03,03,03,35,5.00
2011,03,03,03,36,4.90
2011,03,03,03,37,3.40
2011,03,03,03,38,3.70
2011,03,03,03,39,5.10
2011,03,03,03,40,8.10
2011,03,03,03,41,6.40
2011,03,03,03,42,4.60
2011,03,03,03,43,6.90
2011,03,03,03,44,5.70
2011,03,03,03,45,7.00
2011,03,03,03,46,6.50
2011,03,03,03,47,6.30
2011,03,03,03,48,6.70
2011,03,03,03,49,4.90
2011,03,03,03,50,7.60
2011,03,03,03,51,5.00
2011,03,03,03,52,4.70
2011,03,03,03,53,5.70
2011,03,03,03,54,4.70
2011,03,03,03,55,5.60
2011,03,03,03,56,5.30
2011,03,03,03,57,5.60
2011,03,03,03,58,4.80
2011,03,03,03,59,4.30
2011,03,03,04,00,5.10
2011,03,03,04,01,7.70
2011,03,03,04,02,8.10
2011,03,03,04,03,7.50
2011,03,03,04,04,3.50
2011,03,03,04,05,6.20
2011,03,03,04,06,6.30
2011,03,03,04,07,5.20
2011,03,03,04,08,4.40
2011,03,03,04,09,3.80
2011,03,03,04,10,6.10
2011,03,03,04,11,5.80
2011,03,03,04,12,6.90
2011,03,03,04,13,6.40
2011,03,03,04,14,6.60
2011,03,03,04,15,5.00
2011,03,03,04,16,4.20
2011,03,03,04,17,7.30
2011,03,03,04,18,8.20
2011,03,03,04,19,6.40
2011,03,03,04,20,7.70
2011,03,03,04,21,8.00
2011,03,03,04,22,7.40
2011,03,03,04,23,8.90
2011,03,03,04,24,5.60
2011,03,03,04,25,5.40
2011,03,03,04,26,7.00
2011,03,03,04,27,6.20
2011,03,03,04,28,9.20
2011,03,03,04,29,8.90
2011,03,03,04,30,5.90
2011,03,03,04,31,8.10
2011,03,03,04,32,8.20
2011,03,03,04,33,9.40
2011,03,03,04,34,6.40
2011,03,03,04,35,11.30
2011,03,03,04,36,10.20
2011,03,03,04,37,8.50
2011,03,03,04,38,11.60
2011,03,03,04,39,9.40
2011,03,03,04,40,6.90
2011,03,03,04,41,6.90
2011,03,03,04,42,6.90
2011,03,03,04,43,10.10
2011,03,03,04,44,9.90
2011,03,03,04,45,9.90
2011,03,03,04,46,12.30
2011,03,03,04,47,9.90
2011,03,03,04,48,11.80
2011,03,03,04,49,10.00
2011,03,03,04,50,8.90
2011,03,03,04,51,8.20
2011,03,03,04,52,9.70
2011,03,03,04,53,7.60
2011,03,03,04,54,6.70
2011,03,03,04,55,9.80
2011,03,03,04,56,8.30
2011,03,03,04,57,9.40
2011,03,03,04,58,8.40
2011,03,03,04,59,8.60
2011,03,03,05,00,8.90
2011,03,03,05,01,7.80
2011,03,03,05,02,6.70
2011,03,03,05,03,7.30
2011,03,03,05,04,6.90
2011,03,03,05,05,7.10
2011,03,03,05,06,7.90
2011,03,03,05,07,8.60
2011,03,03,05,08,8.10
2011,03,03,05,09,7.10
2011,03,03,05,10,9.30
2011,03,03,05,11,12.00
2011,03,03,05,12,9.00
2011,03,03,05,13,8.20
2011,03,03,05,14,6.80
2011,03,03,05,15,7.00
2011,03,03,05,16,6.30
2011,03,03,05,17,5.90
2011,03,03,05,18,7.20
2011,03,03,05,19,9.00
2011,03,03,05,20,8.90
2011,03,03,05,21,7.00
2011,03,03,05,22,8.00
2011,03,03,05,23,8.90
2011,03,03,05,24,9.70
2011,03,03,05,25,8.60
2011,03,03,05,26,7.70
2011,03,03,05,27,5.60
2011,03,03,05,28,7.00
2011,03,03,05,29,6.50
2011,03,03,05,30,8.10
2011,03,03,05,31,4.60
2011,03,03,05,32,5.30
2011,03,03,05,33,6.60
2011,03,03,05,34,5.90
2011,03,03,05,35,5.90
2011,03,03,05,36,7.90
2011,03,03,05,37,8.90
2011,03,03,05,38,7.30
2011,03,03,05,39,7.30
2011,03,03,05,40,7.40
2011,03,03,05,41,6.60
2011,03,03,05,42,8.30
2011,03,03,05,43,7.60
2011,03,03,05,44,5.80
2011,03,03,05,45,7.50
2011,03,03,05,46,8.20
2011,03,03,05,47,8.10
2011,03,03,05,48,7.50
2011,03,03,05,49,8.80
2011,03,03,05,50,6.00
2011,03,03,05,51,6.90
2011,03,03,05,52,6.00
2011,03,03,05,53,6.30
2011,03,03,05,54,6.50
2011,03,03,05,55,7.30
2011,03,03,05,56,5.90
2011,03,03,05,57,4.90
2011,03,03,05,58,5.50
2011,03,03,05,59,5.30
2011,03,03,06,00,3.90
2011,03,03,06,01,5.10
2011,03,03,06,02,5.30
2011,03,03,06,03,6.70
2011,03,03,06,04,6.70
2011,03,03,06,05,7.60
2011,03,03,06,06,8.00
2011,03,03,06,07,6.90
2011,03,03,06,08,7.30
2011,03,03,06,09,9.30
2011,03,03,06,10,8.40
2011,03,03,06,11,10.90
2011,03,03,06,12,10.70
2011,03,03,06,13,12.00
2011,03,03,06,14,10.10
2011,03,03,06,15,9.70
2011,03,03,06,16,11.40
2011,03,03,06,17,7.80
2011,03,03,06,18,7.50
2011,03,03,06,19,10.10
2011,03,03,06,20,8.80
2011,03,03,06,21,9.70
2011,03,03,06,22,8.30
2011,03,03,06,23,8.70
2011,03,03,06,24,9.10
2011,03,03,06,25,8.10
2011,03,03,06,26,6.30
2011,03,03,06,27,8.60
2011,03,03,06,28,8.00
2011,03,03,06,29,8.30
2011,03,03,06,30,11.00
2011,03,03,06,31,8.00
2011,03,03,06,32,8.90
2011,03,03,06,33,8.40
2011,03,03,06,34,11.00
2011,03,03,06,35,9.70
2011,03,03,06,36,11.60
2011,03,03,06,37,12.00
2011,03,03,06,38,12.10
2011,03,03,06,39,11.90
2011,03,03,06,40,9.30
2011,03,03,06,41,9.40
2011,03,03,06,42,11.20
2011,03,03,06,43,15.00
2011,03,03,06,44,12.20
2011,03,03,06,45,10.30
2011,03,03,06,46,8.70
2011,03,03,06,47,8.30
2011,03,03,06,48,13.00
2011,03,03,06,49,13.20
2011,03,03,06,50,9.70
2011,03,03,06,51,8.20
2011,03,03,06,52,8.90
2011,03,03,06,53,6.40
2011,03,03,06,54,7.00
2011,03,03,06,55,8.00
2011,03,03,06,56,9.10
2011,03,03,06,57,6.30
2011,03,03,06,58,9.40
2011,03,03,06,59,9.90
2011,03,03,07,00,8.20
2011,03,03,07,01,6.20
2011,03,03,07,02,6.90
2011,03,03,07,03,6.20
2011,03,03,07,04,4.80
2011,03,03,07,05,7.30
2011,03,03,07,06,7.70
2011,03,03,07,07,5.40
2011,03,03,07,08,5.10
2011,03,03,07,09,5.70
2011,03,03,07,10,3.90
2011,03,03,07,11,4.10
2011,03,03,07,12,5.90
2011,03,03,07,13,4.70
2011,03,03,07,14,6.90
2011,03,03,07,15,7.70
2011,03,03,07,16,6.00
2011,03,03,07,17,5.70
2011,03,03,07,18,4.30
2011,03,03,07,19,5.10
2011,03,03,07,20,5.70
2011,03,03,07,21,6.10
2011,03,03,07,22,4.60
2011,03,03,07,23,6.10
2011,03,03,07,24,4.40
2011,03,03,07,25,5.10
2011,03,03,07,26,4.40
2011,03,03,07,27,5.90
2011,03,03,07,28,6.50
2011,03,03,07,29,6.00
2011,03,03,07,30,5.00
2011,03,03,07,31,5.60
2011,03,03,07,32,3.50
2011,03,03,07,33,5.60
2011,03,03,07,34,3.90
2011,03,03,07,35,1.50
2011,03,03,07,36,3.70
2011,03,03,07,37,4.70
2011,03,03,07,38,4.30
2011,03,03,07,39,3.50
2011,03,03,07,40,3.90
2011,03,03,07,41,2.70
2011,03,03,07,42,4.70
2011,03,03,07,43,3.40
2011,03,03,07,44,5.30
2011,03,03,07,45,1.60
2011,03,03,07,46,3.40
2011,03,03,07,47,1.40
2011,03,03,07,48,1.50
2011,03,03,07,49,2.00
2011,03,03,07,50,2.70
2011,03,03,07,51,3.30
2011,03,03,07,52,2.40
2011,03,03,07,53,4.00
2011,03,03,07,54,4.20
2011,03,03,07,55,4.50
2011,03,03,07,56,3.40
2011,03,03,07,57,3.20
2011,03,03,07,58,5.00
2011,03,03,07,59,3.90
2011,03,03,08,00,5.20
2011,03,03,08,01,4.70
2011,03,03,08,02,5.70
2011,03,03,08,03,6.40
2011,03,03,08,04,4.40
2011,03,03,08,05,4.80
2011,03,03,08,06,4.70
2011,03,03,08,07,5.10
2011,03,03,08,08,4.90
2011,03,03,08,09,3.90
2011,03,03,08,10,5.20
2011,03,03,08,11,4.80
2011,03,03,08,12,5.10
2011,03,03,08,13,5.00
2011,03,03,08,14,2.30
2011,03,03,08,15,1.50
2011,03,03,08,16,2.70
2011,03,03,08,17,0.60
2011,03,03,08,18,0.00
2011,03,03,08,19,0.00
2011,03,03,08,20,0.00
2011,03,03,08,21,2.90
2011,03,03,08,22,4.00
2011,03,03,08,23,3.50
2011,03,03,08,24,3.60
2011,03,03,08,25,1.70
2011,03,03,08,26,1.00
2011,03,03,08,27,4.50
2011,03,03,08,28,2.70
2011,03,03,08,29,1.20
2011,03,03,08,30,4.00
2011,03,03,08,31,4.80
2011,03,03,08,32,2.00
2011,03,03,08,33,3.00
2011,03,03,08,34,2.20
2011,03,03,08,35,4.50
2011,03,03,08,36,3.10
2011,03,03,08,37,4.10
2011,03,03,08,38,3.60
2011,03,03,08,39,1.30
2011,03,03,08,40,4.90
2011,03,03,08,41,4.20
2011,03,03,08,42,5.70
2011,03,03,08,43,4.40
2011,03,03,08,44,7.00
2011,03,03,08,45,5.60
2011,03,03,08,46,4.30
2011,03,03,08,47,6.70
2011,03,03,08,48,5.70
2011,03,03,08,49,7.40
2011,03,03,08,50,6.90
2011,03,03,08,51,7.30
2011,03,03,08,52,9.40
2011,03,03,08,53,10.50
2011,03,03,08,54,7.70
2011,03,03,08,55,5.20
2011,03,03,08,56,7.90
2011,03,03,08,57,7.70
2011,03,03,08,58,6.90
2011,03,03,08,59,7.20
2011,03,03,09,00,9.00
2011,03,03,09,01,9.10
2011,03,03,09,02,9.00
2011,03,03,09,03,9.10
2011,03,03,09,04,10.10
2011,03,03,09,05,11.40
2011,03,03,09,06,7.70
2011,03,03,09,07,11.90
2011,03,03,09,08,8.00
2011,03,03,09,09,9.20
2011,03,03,09,10,5.80
2011,03,03,09,11,7.40
2011,03,03,09,12,9.50
2011,03,03,09,13,8.50
2011,03,03,09,14,9.30
2011,03,03,09,15,14.50
2011,03,03,09,16,11.70
2011,03,03,09,17,11.20
2011,03,03,09,18,7.00
2011,03,03,09,19,5.90
2011,03,03,09,20,11.10
2011,03,03,09,21,13.80
2011,03,03,09,22,15.60
2011,03,03,09,23,14.10
2011,03,03,09,24,10.70
2011,03,03,09,25,9.90
2011,03,03,09,26,7.90
2011,03,03,09,27,13.20
2011,03,03,09,28,15.40
2011,03,03,09,29,10.30
2011,03,03,09,30,9.50
2011,03,03,09,31,14.00
2011,03,03,09,32,13.40
2011,03,03,09,33,13.20
2011,03,03,09,34,14.50
2011,03,03,09,35,12.00
2011,03,03,09,36,9.60
2011,03,03,09,37,10.80
2011,03,03,09,38,8.70
2011,03,03,09,39,9.60
2011,03,03,09,40,8.40
2011,03,03,09,41,11.90
2011,03,03,09,42,10.70
2011,03,03,09,43,9.20
2011,03,03,09,44,8.10
2011,03,03,09,45,5.00
2011,03,03,09,46,5.90
2011,03,03,09,47,6.10
2011,03,03,09,48,6.00
2011,03,03,09,49,3.90
2011,03,03,09,50,4.60
2011,03,03,09,51,3.00
2011,03,03,09,52,4.60
2011,03,03,09,53,3.50
2011,03,03,09,54,3.00
2011,03,03,09,55,4.30
2011,03,03,09,56,5.00
2011,03,03,09,57,4.70
2011,03,03,09,58,2.30
2011,03,03,09,59,6.60
2011,03,03,10,00,6.10
2011,03,03,10,01,4.60
2011,03,03,10,02,4.20
2011,03,03,10,03,5.90
2011,03,03,10,04,2.40
2011,03,03,10,05,3.40
2011,03,03,10,06,4.50
2011,03,03,10,07,7.90
2011,03,03,10,08,6.40
2011,03,03,10,09,3.50
2011,03,03,10,10,7.70
2011,03,03,10,11,9.60
2011,03,03,10,12,5.70
2011,03,03,10,13,7.60
2011,03,03,10,14,6.00
2011,03,03,10,15,9.20
2011,03,03,10,16,6.10
2011,03,03,10,17,4.30
2011,03,03,10,18,4.00
2011,03,03,10,19,4.40
2011,03,03,10,20,4.70
2011,03,03,10,21,5.10
2011,03,03,10,22,6.40
2011,03,03,10,23,6.50
2011,03,03,10,24,5.60
2011,03,03,10,25,5.60
2011,03,03,10,26,4.40
2011,03,03,10,27,8.70
2011,03,03,10,28,7.40
2011,03,03,10,29,5.40
2011,03,03,10,30,5.50
2011,03,03,10,31,6.00
2011,03,03,10,32,6.90
2011,03,03,10,33,8.10
2011,03,03,10,34,8.10
2011,03,03,10,35,7.30
2011,03,03,10,36,7.80
2011,03,03,10,37,7.10
2011,03,03,10,38,5.40
2011,03,03,10,39,5.20
2011,03,03,10,40,7.50
2011,03,03,10,41,3.50
2011,03,03,10,42,6.40
2011,03,03,10,43,3.70
2011,03,03,10,44,0.00
2011,03,03,10,45,3.20
2011,03,03,10,46,5.10
2011,03,03,10,47,4.90
2011,03,03,10,48,4.10
2011,03,03,10,49,0.60
2011,03,03,10,50,0.00
2011,03,03,10,51,2.70
2011,03,03,10,52,2.20
2011,03,03,10,53,6.40
2011,03,03,10,54,7.50
2011,03,03,10,55,7.70
2011,03,03,10,56,2.60
2011,03,03,10,57,7.80
2011,03,03,10,58,5.50
2011,03,03,10,59,5.30
2011,03,03,11,00,6.80
2011,03,03,11,01,2.00
2011,03,03,11,02,4.00
2011,03,03,11,03,4.40
2011,03,03,11,04,7.20
2011,03,03,11,05,4.70
2011,03,03,11,06,1.50
2011,03,03,11,07,5.60
2011,03,03,11,08,4.70
2011,03,03,11,09,7.30
2011,03,03,11,10,6.60
2011,03,03,11,11,6.10
2011,03,03,11,12,5.70
2011,03,03,11,13,1.90
2011,03,03,11,14,6.20
2011,03,03,11,15,4.70
2011,03,03,11,16,2.10
2011,03,03,11,17,6.10
2011,03,03,11,18,7.30
2011,03,03,11,19,8.00
2011,03,03,11,20,8.70
2011,03,03,11,21,7.90
2011,03,03,11,22,6.10
2011,03,03,11,23,3.70
2011,03,03,11,24,3.10
2011,03,03,11,25,3.70
2011,03,03,11,26,3.90
2011,03,03,11,27,4.10
2011,03,03,11,28,0.40
2011,03,03,11,29,2.10
2011,03,03,11,30,2.10
2011,03,03,11,31,4.20
2011,03,03,11,32,3.90
2011,03,03,11,33,2.50
2011,03,03,11,34,4.20
2011,03,03,11,35,10.70
2011,03,03,11,36,6.00
2011,03,03,11,37,2.90
2011,03,03,11,38,5.90
2011,03,03,11,39,3.40
2011,03,03,11,40,6.10
2011,03,03,11,41,8.30
2011,03,03,11,42,7.20
2011,03,03,11,43,6.40
2011,03,03,11,44,4.60
2011,03,03,11,45,3.50
2011,03,03,11,46,1.50
2011,03,03,11,47,1.90
2011,03,03,11,48,6.60
2011,03,03,11,49,10.20
2011,03,03,11,50,9.90
2011,03,03,11,51,9.10
2011,03,03,11,52,14.20
2011,03,03,11,53,11.90
2011,03,03,11,54,7.10
2011,03,03,11,55,7.90
2011,03,03,11,56,10.80
2011,03,03,11,57,6.40
2011,03,03,11,58,6.80
2011,03,03,11,59,5.60
2011,03,03,12,00,5.50
2011,03,03,12,01,9.30
2011,03,03,12,02,9.70
2011,03,03,12,03,11.80
2011,03,03,12,04,14.10
2011,03,03,12,05,17.60
2011,03,03,12,06,16.90
2011,03,03,12,07,13.70
2011,03,03,12,08,10.30
2011,03,03,12,09,9.70
2011,03,03,12,10,13.80
2011,03,03,12,11,13.40
2011,03,03,12,12,8.40
2011,03,03,12,13,5.00
2011,03,03,12,14,10.90
2011,03,03,12,15,10.90
2011,03,03,12,16,9.00
2011,03,03,12,17,5.80
2011,03,03,12,18,8.50
2011,03,03,12,19,10.20
2011,03,03,12,20,6.40
2011,03,03,12,21,7.70
2011,03,03,12,22,12.70
2011,03,03,12,23,11.30
2011,03,03,12,24,16.70
2011,03,03,12,25,11.30
2011,03,03,12,26,11.50
2011,03,03,12,27,10.70
2011,03,03,12,28,8.90
2011,03,03,12,29,6.50
2011,03,03,12,30,8.60
2011,03,03,12,31,14.10
2011,03,03,12,32,13.10
2011,03,03,12,33,7.40
2011,03,03,12,34,14.80
2011,03,03,12,35,7.50
2011,03,03,12,36,10.20
2011,03,03,12,37,8.70
2011,03,03,12,38,11.10
2011,03,03,12,39,15.10
2011,03,03,12,40,13.60
2011,03,03,12,41,12.70
2011,03,03,12,42,19.20
2011,03,03,12,43,15.00
2011,03,03,12,44,15.60
2011,03,03,12,45,11.30
2011,03,03,12,46,10.30
2011,03,03,12,47,23.00
2011,03,03,12,48,13.40
2011,03,03,12,49,16.70
2011,03,03,12,50,14.40
2011,03,03,12,51,9.00
2011,03,03,12,52,9.10
2011,03,03,12,53,16.70
2011,03,03,12,54,20.80
2011,03,03,12,55,14.70
2011,03,03,12,56,14.40
2011,03,03,12,57,16.40
2011,03,03,12,58,15.90
2011,03,03,12,59,16.80
2011,03,03,13,00,8.50
2011,03,03,13,01,9.90
2011,03,03,13,02,13.70
2011,03,03,13,03,10.10
2011,03,03,13,04,13.40
2011,03,03,13,05,10.50
2011,03,03,13,06,4.70
2011,03,03,13,07,5.00
2011,03,03,13,08,11.30
2011,03,03,13,09,11.10
2011,03,03,13,10,12.20
2011,03,03,13,11,6.40
2011,03,03,13,12,5.40
2011,03,03,13,13,6.40
2011,03,03,13,14,12.40
2011,03,03,13,15,11.40
2011,03,03,13,16,13.40
2011,03,03,13,17,7.40
2011,03,03,13,18,12.00
2011,03,03,13,19,7.30
2011,03,03,13,20,8.50
2011,03,03,13,21,6.10
2011,03,03,13,22,8.50
2011,03,03,13,23,11.40
2011,03,03,13,24,11.60
2011,03,03,13,25,10.00
2011,03,03,13,26,9.70
2011,03,03,13,27,8.10
2011,03,03,13,28,8.80
2011,03,03,13,29,8.00
2011,03,03,13,30,11.30
2011,03,03,13,31,9.90
2011,03,03,13,32,11.70
2011,03,03,13,33,8.10
2011,03,03,13,34,13.90
2011,03,03,13,35,11.80
2011,03,03,13,36,8.20
2011,03,03,13,37,8.10
2011,03,03,13,38,11.60
2011,03,03,13,39,8.90
2011,03,03,13,40,11.40
2011,03,03,13,41,10.50
2011,03,03,13,42,9.60
2011,03,03,13,43,12.80
2011,03,03,13,44,14.50
2011,03,03,13,45,12.30
2011,03,03,13,46,6.80
2011,03,03,13,47,6.60
2011,03,03,13,48,8.90
2011,03,03,13,49,16.20
2011,03,03,13,50,18.80
2011,03,03,13,51,17.00
2011,03,03,13,52,10.90
2011,03,03,13,53,6.40
2011,03,03,13,54,14.40
2011,03,03,13,55,16.40
2011,03,03,13,56,17.10
2011,03,03,13,57,15.40
2011,03,03,13,58,10.30
2011,03,03,13,59,10.90
2011,03,03,14,00,11.50
2011,03,03,14,01,11.60
2011,03,03,14,02,8.10
2011,03,03,14,03,7.00
2011,03,03,14,04,9.70
2011,03,03,14,05,16.80
2011,03,03,14,06,16.70
2011,03,03,14,07,17.20
2011,03,03,14,08,13.10
2011,03,03,14,09,17.30
2011,03,03,14,10,13.40
2011,03,03,14,11,24.70
2011,03,03,14,12,27.00
2011,03,03,14,13,26.70
2011,03,03,14,14,26.20
2011,03,03,14,15,24.40
2011,03,03,14,16,19.90
2011,03,03,14,17,13.80
2011,03,03,14,18,12.20
2011,03,03,14,19,16.30
2011,03,03,14,20,12.30
2011,03,03,14,21,8.00
2011,03,03,14,22,10.00
2011,03,03,14,23,7.50
2011,03,03,14,24,10.50
2011,03,03,14,25,12.40
2011,03,03,14,26,7.70
2011,03,03,14,27,6.20
2011,03,03,14,28,9.80
2011,03,03,14,29,10.40
2011,03,03,14,30,10.70
2011,03,03,14,31,8.00
2011,03,03,14,32,8.70
2011,03,03,14,33,6.80
2011,03,03,14,34,8.60
2011,03,03,14,35,8.90
2011,03,03,14,36,6.60
2011,03,03,14,37,6.00
2011,03,03,14,38,6.40
2011,03,03,14,39,7.00
2011,03,03,14,40,6.80
2011,03,03,14,41,13.00
2011,03,03,14,42,9.20
2011,03,03,14,43,5.10
2011,03,03,14,44,5.90
2011,03,03,14,45,9.20
2011,03,03,14,46,7.30
2011,03,03,14,47,9.10
2011,03,03,14,48,11.40
2011,03,03,14,49,11.50
2011,03,03,14,50,7.30
2011,03,03,14,51,11.80
2011,03,03,14,52,8.20
2011,03,03,14,53,9.40
2011,03,03,14,54,12.20
2011,03,03,14,55,7.70
2011,03,03,14,56,9.80
2011,03,03,14,57,8.80
2011,03,03,14,58,8.60
2011,03,03,14,59,8.60
2011,03,03,15,00,6.80
2011,03,03,15,01,10.40
2011,03,03,15,02,6.80
2011,03,03,15,03,8.10
2011,03,03,15,04,13.00
2011,03,03,15,05,11.80
2011,03,03,15,06,12.60
2011,03,03,15,07,12.70
2011,03,03,15,08,9.80
2011,03,03,15,09,7.00
2011,03,03,15,10,7.50
2011,03,03,15,11,6.40
2011,03,03,15,12,7.00
2011,03,03,15,13,8.10
2011,03,03,15,14,5.10
2011,03,03,15,15,5.40
2011,03,03,15,16,5.70
2011,03,03,15,17,5.80
2011,03,03,15,18,6.00
2011,03,03,15,19,4.20
2011,03,03,15,20,4.50
2011,03,03,15,21,4.80
2011,03,03,15,22,3.30
2011,03,03,15,23,3.60
2011,03,03,15,24,5.40
2011,03,03,15,25,8.10
2011,03,03,15,26,7.10
2011,03,03,15,27,7.40
2011,03,03,15,28,18.40
2011,03,03,15,29,24.50
2011,03,03,15,30,20.50
2011,03,03,15,31,25.10
2011,03,03,15,32,24.10
2011,03,03,15,33,21.80
2011,03,03,15,34,27.70
2011,03,03,15,35,16.20
2011,03,03,15,36,22.50
2011,03,03,15,37,17.50
2011,03,03,15,38,18.80
2011,03,03,15,39,21.70
2011,03,03,15,40,21.00
2011,03,03,15,41,19.20
2011,03,03,15,42,20.80
2011,03,03,15,43,19.10
2011,03,03,15,44,15.80
2011,03,03,15,45,15.10
2011,03,03,15,46,16.10
2011,03,03,15,47,13.20
2011,03,03,15,48,13.10
2011,03,03,15,49,10.40
2011,03,03,15,50,9.50
2011,03,03,15,51,9.70
2011,03,03,15,52,7.40
2011,03,03,15,53,3.50
2011,03,03,15,54,8.60
2011,03,03,15,55,9.20
2011,03,03,15,56,6.80
2011,03,03,15,57,6.40
2011,03,03,15,58,7.70
2011,03,03,15,59,7.20
2011,03,03,16,00,7.00
2011,03,03,16,01,7.30
2011,03,03,16,02,6.90
2011,03,03,16,03,7.70
2011,03,03,16,04,7.30
2011,03,03,16,05,6.40
2011,03,03,16,06,7.40
2011,03,03,16,07,9.40
2011,03,03,16,08,7.50
2011,03,03,16,09,11.10
2011,03,03,16,10,8.40
2011,03,03,16,11,11.20
2011,03,03,16,12,11.50
2011,03,03,16,13,8.90
2011,03,03,16,14,11.30
2011,03,03,16,15,9.40
2011,03,03,16,16,11.30
2011,03,03,16,17,11.70
2011,03,03,16,18,11.40
2011,03,03,16,19,15.60
2011,03,03,16,20,13.40
2011,03,03,16,21,17.90
2011,03,03,16,22,12.10
2011,03,03,16,23,14.10
2011,03,03,16,24,14.70
2011,03,03,16,25,15.20
2011,03,03,16,26,15.70
2011,03,03,16,27,15.40
2011,03,03,16,28,12.40
2011,03,03,16,29,11.80
2011,03,03,16,30,12.90
2011,03,03,16,31,13.80
2011,03,03,16,32,14.20
2011,03,03,16,33,13.50
2011,03,03,16,34,13.90
2011,03,03,16,35,10.00
2011,03,03,16,36,12.60
2011,03,03,16,37,10.40
2011,03,03,16,38,12.60
2011,03,03,16,39,13.90
2011,03,03,16,40,13.60
2011,03,03,16,41,10.40
2011,03,03,16,42,12.70
2011,03,03,16,43,9.30
2011,03,03,16,44,15.20
2011,03,03,16,45,15.70
2011,03,03,16,46,12.60
2011,03,03,16,47,12.40
2011,03,03,16,48,10.50
2011,03,03,16,49,12.20
2011,03,03,16,50,12.20
2011,03,03,16,51,12.90
2011,03,03,16,52,10.90
2011,03,03,16,53,12.30
2011,03,03,16,54,10.30
2011,03,03,16,55,10.50
2011,03,03,16,56,11.20
2011,03,03,16,57,11.80
2011,03,03,16,58,10.30
2011,03,03,16,59,11.00
2011,03,03,17,00,13.10
2011,03,03,17,01,14.30
2011,03,03,17,02,15.00
2011,03,03,17,03,11.70
2011,03,03,17,04,12.60
2011,03,03,17,05,12.90
2011,03,03,17,06,12.90
2011,03,03,17,07,13.40
2011,03,03,17,08,13.80
2011,03,03,17,09,16.00
2011,03,03,17,10,12.50
2011,03,03,17,11,13.80
2011,03,03,17,12,10.50
2011,03,03,17,13,10.10
2011,03,03,17,14,9.20
2011,03,03,17,15,10.60
2011,03,03,17,16,8.40
2011,03,03,17,17,8.60
2011,03,03,17,18,3.20
2011,03,03,17,19,0.70
2011,03,03,17,20,1.80
2011,03,03,17,21,1.10
2011,03,03,17,22,1.80
2011,03,03,17,23,3.20
2011,03,03,17,24,3.40
2011,03,03,17,25,2.30
2011,03,03,17,26,0.00
2011,03,03,17,27,0.10
2011,03,03,17,28,0.60
2011,03,03,17,29,0.00
2011,03,03,17,30,0.00
2011,03,03,17,31,2.50
2011,03,03,17,32,0.00
2011,03,03,17,33,0.00
2011,03,03,17,34,0.00
2011,03,03,17,35,0.20
2011,03,03,17,36,0.00
2011,03,03,17,37,0.00
2011,03,03,17,38,0.00
2011,03,03,17,39,0.00
2011,03,03,17,40,0.00
2011,03,03,17,41,0.00
2011,03,03,17,42,0.00
2011,03,03,17,43,0.00
2011,03,03,17,44,0.00
2011,03,03,17,45,0.00
2011,03,03,17,46,0.00
2011,03,03,17,47,0.00
2011,03,03,17,48,0.00
2011,03,03,17,49,0.00
2011,03,03,17,50,0.00
2011,03,03,17,51,0.00